Location: Monroe
(41.3286°N, 74.1872°W)
Time: 19:29:58
(UTC+00:00)

ARIANE 6 FM1 Upper Stage - Pass Details

Date: 26 January 2026
Orbit: 522 x 609 km, 62.0° (Epoch: 6 February)

Event Time Altitude Azimuth Distance (km) Brightness Sun altitude
Rises 23:56:54 0° 253° (WSW) 2,707 7.6 -21.1°
Reaches altitude 10° 23:59:34 10° 270° (W) 1,801 6.4 -21.6°
Maximum altitude 00:02:38 20° 319° (NW) 1,261 4.8 -22.1°
Enters shadow 00:04:38 15° 357° (N) 1,507 4.8 -22.5°
